User: anonymous
Location: Unspecified
(0.0000°N, 0.0000°E)
Time: 21:37:39
(UTC+02:00)
Language:

Cosmos 1898 Rocket - Orbit

View from above orbital plane
View from above orbital plane
View from above satellite
View from above satellite

Ground track
Ground track

The orbit data is extracted from the following two-line orbital elements,

1 18586U 87098B   14233.87917289  .00000119  00000-0  49605-4 0  1029
2 18586 074.0085 032.1774 0021739 330.4260 137.1493 14.36445283399401
Epoch (UTC): 21 August 2014 21:06:00
Eccentricity: 0.0021739
inclination: 74.0085°
perigee height: 755 km
apogee height: 786 km
right ascension of ascending node: 32.1774°
argument of perigee: 330.4260°
revolutions per day: 14.36445283
mean anomaly at epoch: 137.1493°
orbit number at epoch: 39940

The dashed part of the orbit path shows where the satellite is in the earth's shadow,  

DLR